Shaonian Xing (43199 NORAD) Tracking and Keplerian Element Data

This shows tracking and keplerian element data for the satellite.

Feedback or suggestion? Click here.




ElementValue
Catalog43199
NameShaonian Xing
Epoch Orbit4359
Epoch Day319.57128013
Epoch Year2018
RAAN85.1234
Inclination97.3536
Eccentricity0.0017105
Argument of Perigee348.6067
Mean Anonmoly11.4775
Mean Motion15.24128776
Decay Rate1.554E-05
L11 43199U 18015H 18319.57128013 .00001554 00000-0 66618-4 0 9996
L22 43199 097.3536 085.1234 0017105 348.6067 011.4775 15.24128776043591

Live tracking and technical data element details for Shaonian Xing (NORAD 43199). Shaonian Xing can be tracked NOW for your location showing map with azimuth and elevation plus other details from your city location.

Track the satellite on the map from your city or location and see movement details for azimuth, elevation, latitude, longitude, range, height, and movement on the map or in text.







IsCatalogInMostPopularTable: catalog: 43199, numindb: 167
Update: records affected: 1



GetName: 43199 Shaonian Xing

Hit Count: updated at: Mon, 19 Nov 2018 23:59:14 GMT